Date String (YYYY-MM-DD hh:mm:ss) UTC,Instrument flags,absolute air pressure of the measurement (hPa),sample flow rate (lpm),inlet stack bypass flow (lpm),air temperature of the measurement (°C),ambient temperature measured by the external sensor (°C),aerosol sample conditioner tube jacket temperature (°C),OPC LED temperature (°C),internal box temperature (°C),relative humidity of the measurement (%),span deviation,mass concentration of particles derived from Lorenz-Mie calculation of OPC scattering (μg/m³),mass concentration of particles derived from Lorenz-Mie calculation of OPC scattering (μg/m³),mass concentration of particles derived from Lorenz-Mie calculation of OPC scattering (μg/m³)
DateTimeUTC,F1_M11,P_M11,Q1_M11,Q2_M11,T1_M11,T2_M11,T3_M11,T4_M11,T5_M11,U1_M11,ZSPAN_M11,X0_M11,X2_M11,X1_M11
2024-02-06 23:00:00,SystemResetWarning,0821.2,5.00,000.00,023.8,023.2,000.0,032.1,025.6,13.2,0000.0,0006.36,0002.95,0002.43
2024-02-06 23:01:00,SystemResetWarning,0821.1,5.01,000.00,023.8,023.3,000.0,032.1,025.6,13.2,0000.0,0006.36,0002.96,0002.44
2024-02-06 23:02:00,SystemResetWarning,0821.1,5.01,000.00,023.8,023.3,000.0,032.1,025.6,13.0,0000.0,0006.41,0002.99,0002.46
2024-02-06 23:03:00,SystemResetWarning,0821.1,5.01,000.00,023.8,023.3,000.0,032.1,025.6,12.9,0000.0,0006.32,0002.96,0002.48
2024-02-06 23:04:00,SystemResetWarning,0821.1,4.99,000.00,023.8,023.3,000.0,032.1,025.6,13.0,0000.0,0006.31,0002.95,0002.48
2024-02-06 23:05:00,SystemResetWarning,0821.1,5.00,000.00,023.8,023.3,000.0,032.1,025.6,13.0,0000.0,0005.05,0002.91,0002.46
2024-02-06 23:06:00,SystemResetWarning,0821.1,5.00,000.00,023.8,023.3,000.0,032.1,025.6,13.0,0000.0,0005.04,0002.91,0002.47
2024-02-06 23:07:00,SystemResetWarning,0821.3,4.99,000.00,023.8,023.3,000.0,032.1,025.6,13.2,0000.0,0004.24,0002.89,0002.47
2024-02-06 23:08:00,SystemResetWarning,0821.2,5.01,000.00,023.9,023.3,000.0,032.2,025.6,13.3,0000.0,0004.00,0002.93,0002.49
2024-02-06 23:09:00,SystemResetWarning,0821.2,5.01,000.00,023.9,023.3,000.0,032.2,025.7,13.6,0000.0,0003.82,0002.90,0002.49
2024-02-06 23:10:00,SystemResetWarning,0821.0,5.01,000.00,023.9,023.3,000.0,032.2,025.7,13.8,0000.0,0003.78,0002.88,0002.49
2024-02-06 23:11:00,SystemResetWarning,0821.3,4.99,000.00,023.9,023.3,000.0,032.2,025.7,13.9,0000.0,0004.62,0002.87,0002.50
2024-02-06 23:12:00,SystemResetWarning,0821.0,4.99,000.00,023.9,023.2,000.0,032.2,025.7,13.7,0000.0,0004.73,0002.87,0002.50
2024-02-06 23:13:00,SystemResetWarning,0821.1,5.01,000.00,023.9,023.2,000.0,032.2,025.7,13.6,0000.0,0004.70,0002.88,0002.50
2024-02-06 23:14:00,SystemResetWarning,0821.1,5.01,000.00,023.9,023.3,000.0,032.2,025.7,13.7,0000.0,0004.71,0002.87,0002.50
2024-02-06 23:15:00,SystemResetWarning,0821.1,5.00,000.00,023.9,023.3,000.0,032.2,025.7,13.7,0000.0,0004.80,0002.90,0002.50
2024-02-06 23:16:00,SystemResetWarning,0821.1,4.99,000.00,023.9,023.3,000.0,032.2,025.7,13.8,0000.0,0005.01,0002.93,0002.49
2024-02-06 23:17:00,SystemResetWarning,0821.1,4.99,000.00,023.9,023.3,000.0,032.2,025.7,13.7,0000.0,0005.01,0002.93,0002.49
2024-02-06 23:18:00,SystemResetWarning,0821.0,5.00,000.00,023.9,023.3,000.0,032.2,025.7,13.4,0000.0,0005.05,0002.92,0002.48
2024-02-06 23:19:00,SystemResetWarning,0821.0,5.01,000.00,023.9,023.3,000.0,032.2,025.7,13.3,0000.0,0005.09,0002.91,0002.47
2024-02-06 23:20:00,SystemResetWarning,0821.0,5.01,000.00,023.9,023.3,000.0,032.2,025.7,13.3,0000.0,0005.39,0002.90,0002.45
2024-02-06 23:21:00,SystemResetWarning,0820.9,5.00,000.00,023.9,023.3,000.0,032.2,025.7,13.2,0000.0,0006.53,0002.93,0002.45
2024-02-06 23:22:00,SystemResetWarning,0820.9,4.99,000.00,023.9,023.3,000.0,032.3,025.7,13.1,0000.0,0005.86,0002.96,0002.47
2024-02-06 23:23:00,SystemResetWarning,0821.1,4.99,000.00,023.9,023.3,000.0,032.3,025.7,13.0,0000.0,0005.76,0002.98,0002.47
2024-02-06 23:24:00,SystemResetWarning,0821.1,4.99,000.00,023.9,023.3,000.0,032.3,025.7,12.8,0000.0,0007.27,0003.02,0002.48
2024-02-06 23:25:00,SystemResetWarning,0821.2,5.00,000.00,023.9,023.3,000.0,032.3,025.7,12.7,0000.0,0007.24,0003.02,0002.48
2024-02-06 23:26:00,SystemResetWarning,0821.2,5.00,000.00,023.9,023.3,000.0,032.3,025.7,12.6,0000.0,0007.21,0003.01,0002.49
2024-02-06 23:27:00,SystemResetWarning,0821.5,5.01,000.00,023.9,023.3,000.0,032.3,025.7,12.6,0000.0,0007.14,0003.04,0002.52
2024-02-06 23:28:00,SystemResetWarning,0821.2,5.00,000.00,023.9,023.3,000.0,032.3,025.7,12.8,0000.0,0007.20,0003.10,0002.55
2024-02-06 23:29:00,SystemResetWarning,0821.2,4.99,000.00,023.9,023.3,000.0,032.3,025.7,13.1,0000.0,0008.01,0003.12,0002.57
2024-02-06 23:30:00,SystemResetWarning,0821.2,5.00,000.00,023.9,023.3,000.0,032.3,025.7,13.1,0000.0,0007.94,0003.10,0002.60
2024-02-06 23:31:00,SystemResetWarning,0821.1,5.00,000.00,023.9,023.3,000.0,032.3,025.7,12.9,0000.0,0007.80,0003.10,0002.64
2024-02-06 23:32:00,SystemResetWarning,0821.0,5.00,000.00,023.9,023.3,000.0,032.3,025.7,12.8,0000.0,0006.91,0003.12,0002.72
2024-02-06 23:33:00,SystemResetWarning,0821.1,5.00,000.00,023.9,023.3,000.0,032.3,025.7,12.7,0000.0,0006.94,0003.17,0002.83
2024-02-06 23:34:00,SystemResetWarning,0821.1,5.00,000.00,024.0,023.3,000.0,032.3,025.7,12.6,0000.0,0006.92,0003.20,0002.93
2024-02-06 23:35:00,SystemResetWarning,0821.1,4.99,000.00,024.0,023.3,000.0,032.3,025.7,12.6,0000.0,0005.83,0003.25,0003.02
2024-02-06 23:36:00,SystemResetWarning,0821.1,5.00,000.00,024.0,023.3,000.0,032.3,025.7,12.5,0000.0,0005.59,0003.26,0003.07
2024-02-06 23:37:00,SystemResetWarning,0820.9,5.00,000.00,024.0,023.3,000.0,032.3,025.7,12.5,0000.0,0005.84,0003.29,0003.10
2024-02-06 23:38:00,SystemResetWarning,0821.0,5.01,000.00,024.0,023.3,000.0,032.3,025.7,12.4,0000.0,0005.92,0003.30,0003.11
2024-02-06 23:39:00,SystemResetWarning,0821.2,5.00,000.00,024.0,023.3,000.0,032.3,025.7,12.4,0000.0,0006.00,0003.30,0003.12
2024-02-06 23:40:00,SystemResetWarning,0821.0,5.01,000.00,024.0,023.3,000.0,032.3,025.7,12.4,0000.0,0005.02,0003.34,0003.13
2024-02-06 23:41:00,SystemResetWarning,0821.0,5.00,000.00,024.0,023.3,000.0,032.3,025.7,12.4,0000.0,0004.95,0003.36,0003.15
2024-02-06 23:42:00,SystemResetWarning,0820.9,5.00,000.00,024.0,023.3,000.0,032.3,025.7,12.3,0000.0,0005.92,0003.37,0003.15
2024-02-06 23:43:00,SystemResetWarning,0820.9,5.00,000.00,024.0,023.3,000.0,032.3,025.8,12.4,0000.0,0006.53,0003.34,0003.12
2024-02-06 23:44:00,SystemResetWarning,0820.8,5.00,000.00,024.0,023.3,000.0,032.3,025.7,12.4,0000.0,0006.50,0003.29,0003.07
2024-02-06 23:45:00,SystemResetWarning,0820.8,5.00,000.00,024.0,023.3,000.0,032.3,025.8,12.3,0000.0,0006.54,0003.27,0003.00
2024-02-06 23:46:00,SystemResetWarning,0820.9,5.00,000.00,024.0,023.3,000.0,032.4,025.8,12.4,0000.0,0006.69,0003.26,0002.96
2024-02-06 23:47:00,SystemResetWarning,0820.8,5.00,000.00,024.0,023.3,000.0,032.4,025.8,12.5,0000.0,0006.69,0003.26,0002.95
2024-02-06 23:48:00,SystemResetWarning,0820.8,5.01,000.00,024.0,023.3,000.0,032.4,025.8,12.4,0000.0,0006.68,0003.27,0002.95
2024-02-06 23:49:00,SystemResetWarning,0820.8,5.01,000.00,024.0,023.3,000.0,032.3,025.7,12.3,0000.0,0006.90,0003.27,0002.95
2024-02-06 23:50:00,SystemResetWarning,0820.8,5.00,000.00,024.0,023.3,000.0,032.3,025.7,12.3,0000.0,0007.57,0003.27,0002.96
2024-02-06 23:51:00,SystemResetWarning,0820.8,5.00,000.00,024.0,023.3,000.0,032.3,025.7,12.3,0000.0,0007.46,0003.24,0002.96
2024-02-06 23:52:00,SystemResetWarning,0820.7,5.00,000.00,024.0,023.3,000.0,032.3,025.7,12.3,0000.0,0007.40,0003.23,0002.97
2024-02-06 23:53:00,SystemResetWarning,0820.6,5.01,000.00,024.0,023.3,000.0,032.3,025.7,12.3,0000.0,0006.68,0003.26,0003.00
2024-02-06 23:54:00,SystemResetWarning,0820.6,5.00,000.00,024.0,023.3,000.0,032.3,025.7,12.4,0000.0,0006.31,0003.31,0003.03
2024-02-06 23:55:00,SystemResetWarning,0820.6,4.99,000.00,024.0,023.3,000.0,032.4,025.8,12.5,0000.0,0006.28,0003.32,0003.04
2024-02-06 23:56:00,SystemResetWarning,0820.5,4.99,000.00,024.0,023.3,000.0,032.4,025.8,12.5,0000.0,0006.29,0003.33,0003.07
2024-02-06 23:57:00,SystemResetWarning,0820.5,5.00,000.00,024.0,023.3,000.0,032.4,025.8,12.4,0000.0,0006.15,0003.34,0003.10
2024-02-06 23:58:00,SystemResetWarning,0820.5,5.00,000.00,024.0,023.3,000.0,032.4,025.8,12.4,0000.0,0006.19,0003.37,0003.15
2024-02-06 23:59:00,SystemResetWarning,0820.5,5.00,000.00,024.0,023.3,000.0,032.4,025.8,12.3,0000.0,0006.25,0003.44,0003.20
